Weather History for VANP - November, 2012

Change the Weather History Date:

Saturday, November 3, 2012

  Actual Average Record
Temperature  
Mean Temperature 76 °F -  
Max Temperature 82 °F 87 °F - ()
Min Temperature 71 °F 60 °F - ()
Cooling Degree Days 12    
Growing Degree Days 26 (Base 50)    
Moisture  
Dew Point 73 °F    
Average Humidity 89    
Maximum Humidity 100    
Minimum Humidity 74    
Precipitation  
Precipitation 0.04 in 0.02 in - ()
Sea Level Pressure  
Sea Level Pressure 29.80 in    
Wind  
Wind Speed 3 mph ()    
Max Wind Speed 8 mph    
Max Gust Speed -    
Visibility 2.3 miles    
Events Rain    
T = Trace of Precipitation, MM = Missing Value Source: Averaged Metar Reports

Daily Weather History Graph

Daily Weather History Graph

Search for Another Location

Airport or City:

Trip Planner

Search our weather history database for the weather conditions in past years. The results will help you decide how hot, cold, wet, or windy it might be!

Date:

Astronomy

Nov. 03, 2012 Rise Set
Actual Time 6:17 AM IST 5:36 PM IST
Civil Twilight 5:54 AM IST 5:59 PM IST
Nautical Twilight 5:28 AM IST 6:26 PM IST
Astronomical Twilight 5:02 AM IST 6:52 PM IST
Moon 9:04 PM IST (11/3) 9:48 AM IST (11/3)
Length of Visible Light 12h 05m
Length of Day
11h 19m
Waning Gibbous, 83% of the Moon is Illuminated
Nov 3
Waning Gibbous
Nov 7
Last Quarter
Nov 14
New
Nov 20
First Quarter
Nov 28
Full

Hourly Weather History & Observations

Time (IST) Temp. Heat Index Dew Point Humidity Pressure Visibility Wind Dir Wind Speed Gust Speed Precip Events Conditions
12:10 AM 73.4 °F - 73.4 °F 100% 29.80 in 2.5 mi ENE 2.3 mph - N/A   Haze
1:10 AM 73.4 °F - 71.6 °F 94% 29.80 in 2.5 mi NE 2.3 mph - N/A   Haze
2:10 AM 73.4 °F - 71.6 °F 94% 29.77 in 2.5 mi ENE 3.5 mph - N/A   Haze
2:30 AM 72 °F - 72 °F 99% 29.76 in 1 mi NE 3.5 mph - -   Haze
3:10 AM 73.4 °F - 71.6 °F 94% 29.77 in 2.5 mi NE 3.5 mph - N/A   Haze
4:10 AM 71.6 °F - 71.6 °F 100% 29.77 in 2.5 mi Calm Calm - N/A   Haze
5:10 AM 73.4 °F - 71.6 °F 94% 29.77 in 2.5 mi NNE 3.5 mph - N/A   Haze
5:30 AM 72 °F - 71 °F 94% 29.77 in 2 mi NNE 2.3 mph - -   Haze
6:10 AM 73.4 °F - 73.4 °F 100% 29.80 in 2.5 mi NE 2.3 mph - N/A   Haze
7:10 AM 73.4 °F - 71.6 °F 94% 29.83 in 2.5 mi NNE 4.6 mph - N/A   Haze
8:10 AM 73.4 °F - 71.6 °F 94% 29.86 in 2.5 mi NE 2.3 mph - N/A   Haze
8:30 AM 74 °F - 72 °F 94% 29.83 in 2 mi NE 2.3 mph - -   Haze
10:10 AM - - - N/A% 29.89 in 1.9 mi ENE 4.6 mph - N/A   Haze
11:10 AM 82.4 °F 89.5 °F 75.2 °F 79% 29.86 in 1.9 mi ENE 5.8 mph - N/A   Haze
11:30 AM 80 °F - 75 °F 79% 29.81 in 2 mi East 8.1 mph - -   Haze
12:10 PM 82.4 °F 89.5 °F 75.2 °F 79% 29.83 in 3.1 mi East 3.5 mph - N/A   Haze
1:10 PM 82.4 °F 89.5 °F 75.2 °F 79% 29.80 in 3.1 mi East 4.6 mph - N/A   Haze
2:10 PM 80.6 °F 87.1 °F 77.0 °F 89% 29.77 in 3.1 mi SE 4.6 mph - N/A   Haze
2:30 PM 81 °F - 76 °F 80% 29.73 in 2 mi ESE 4.6 mph - -   Haze
4:10 PM 82.4 °F 88.2 °F 73.4 °F 74% 29.77 in 3.1 mi East 2.3 mph - N/A   Haze
5:10 PM 82.4 °F 89.5 °F 75.2 °F 79% 29.77 in 3.1 mi Calm Calm - N/A   Haze
5:30 PM 80 °F - 74 °F 76% 29.74 in 2 mi Calm Calm - -   Haze
6:10 PM 80.6 °F 85.4 °F 73.4 °F 79% 29.80 in 2.5 mi Calm Calm - N/A   Haze
7:10 PM 78.8 °F - 73.4 °F 83% 29.83 in 2.5 mi Calm Calm - N/A   Haze
8:10 PM 78.8 °F - 73.4 °F 83% 29.83 in 2.5 mi ENE 2.3 mph - N/A   Haze
8:30 PM 77 °F - 74 °F 87% 29.82 in 1 mi NE 5.8 mph - - Rain Light Rain
10:10 PM 75.2 °F - 73.4 °F 94% 29.86 in 1.9 mi Calm Calm - N/A   Haze
11:10 PM 75.2 °F - 73.4 °F 94% 29.86 in 1.9 mi NE 2.3 mph - N/A   Haze
11:30 PM 74 °F - 73 °F 96% 29.81 in 1 mi ENE 2.3 mph - -   Haze